Project,Study,Ord_Occ,Event_Num,Cast_ID,Date_Time_UTC,Date_Time_PST,Lat_Dec,Lon_Dec,Sta_ID,Line,Sta,Depth,Pressure,PrQ,Temp1,Temp1Q,Temp2,Temp2Q,TempAve,Salt1,Salt1Q,Salt1_Corr,Salt2,Salt2Q,Salt2_Corr,SaltAve_Corr,Ox1,Ox1Q,Ox1_CruiseCorr,Ox1_StaCorr,Ox2,Ox2Q,Ox2_CruiseCorr,Ox2_StaCorr,OxAve_StaCorr,Ox1uM,Ox1uM_CruiseCorr,Ox1uM_StaCorr,Ox2uM,Ox2uM_CruiseCorr,Ox2uM_StaCorr,OxAveuM_StaCorr,FluorV,FluorQ,EstChl_CruiseCorr,EstChl_StaCorr,ISUSV,ISUSQ,EstNO3_CruiseCorr,EstNO3_StaCorr,SigThetaTS1,SigThetaTS1Q,SigThetaTS2,SigThetaTS2Q,BAT,XMiss,TransQ,pH,pHQ,SPAR,SPARQ,PAR,PARQ,PoT1,PoT2,DynHt,SVA,OxSat1,OxSat2,BTL_Depth,BTL_Temp,SaltB,OxB,OxBuM,Chl-a,Phaeo,NO3,NO2,NH4,PO4,SIL
CalCOFI,2101RL,073,,2101_073d,02-Feb-2021 17:45:34,02-Feb-2021 09:45:34,35.08632,-120.77779,076.7 049.0,076.7,049.0,3.000,3.022,,12.3266,,12.3258,,12.3262,33.3091,,33.3149,33.3075,,33.3095,33.3122,5.7062,,5.9720,6.0201,5.6179,,5.9648,6.0178,6.0190,248.569,260.4622,185.4478,244.725,276.8650,182.7487,184.0983,0.1608,,1.0694,, ,, , ,25.2142,,25.2131,,1.5171,68.4352,,,,1.9589E+03,,4.9783E+01,,12.3263,12.3254,0.0043,274.467,93.934,92.479,3,,33.2995,5.986,261.19,,,,,,,
CalCOFI,2101RL,073,,2101_073d,02-Feb-2021 17:45:43,02-Feb-2021 09:45:43,35.08632,-120.77776,076.7 049.0,076.7,049.0,4.000,4.029,,12.3132,,12.3131,,12.3132,33.3103,,33.3161,33.3090,,33.3110,33.3136,5.6449,,5.9079,5.9552,5.5780,,5.9224,5.9754,5.9653,245.899,257.6673,185.5514,242.985,273.8959,182.9639,184.2577,0.1799,,1.2259,, ,, , ,25.2177,,25.2167,,1.5191,68.4019,,,,1.9693E+03,,3.7292E+01,,12.3127,12.3126,0.0087,274.161,92.900,91.798,,,,,,,,,,,,
CalCOFI,2101RL,073,,2101_073d,02-Feb-2021 17:45:46,02-Feb-2021 09:45:46,35.08632,-120.77775,076.7 049.0,076.7,049.0,5.000,5.036,,12.2855,,12.2852,,12.2854,33.3146,,33.3204,33.3132,,33.3152,33.3178,5.5219,,5.7791,5.8249,5.5045,,5.8443,5.8973,5.8611,240.542,252.0596,185.7593,239.785,267.9389,183.3597,184.5595,0.2065,,1.4439,, ,, , ,25.2264,,25.2253,,1.4963,68.7938,,,,1.9577E+03,,2.2256E+01,,12.2848,12.2845,0.0115,273.359,90.827,90.539,,,,,,,,,,,,
CalCOFI,2101RL,073,,2101_073d,02-Feb-2021 17:45:47,02-Feb-2021 09:45:47,35.08632,-120.77774,076.7 049.0,076.7,049.0,6.000,6.044,,12.2638,,12.2643,,12.2641,33.3213,,33.3271,33.3196,,33.3216,33.3244,5.4010,,5.6526,5.6969,5.3624,,5.6934,5.7464,5.7217,235.273,246.5440,185.9638,233.588,262.0797,184.1262,185.0450,0.2158,,1.5201,, ,, , ,25.2357,,25.2342,,1.4514,69.5705,,,,1.9551E+03,,1.6922E+01,,12.2630,12.2635,0.0143,272.496,88.802,88.166,6,,33.3130,, ,,,,,,,
CalCOFI,2101RL,073,,2101_073d,02-Feb-2021 17:45:49,02-Feb-2021 09:45:49,35.08632,-120.77774,076.7 049.0,076.7,049.0,7.000,7.051,,12.1775,,12.1783,,12.1779,33.3590,,33.3648,33.3576,,33.3596,33.3622,5.3787,,5.6292,5.6732,5.3073,,5.6349,5.6879,5.6806,234.292,245.5171,186.0018,231.181,260.9888,184.4240,185.2129,0.1618,,1.0776,, ,, , ,25.2814,,25.2801,,1.2882,72.4709,,,,1.9585E+03,,1.1745E+01,,12.1766,12.1774,0.0170,268.177,88.297,87.125,,,,,,,,,,,,
CalCOFI,2101RL,073,,2101_073d,02-Feb-2021 17:45:50,02-Feb-2021 09:45:50,35.08632,-120.77774,076.7 049.0,076.7,049.0,8.000,8.058,,12.1684,,12.1685,,12.1685,33.3804,,33.3862,33.3778,,33.3798,33.3830,5.3559,,5.6054,5.6491,5.2781,,5.6039,5.6568,5.6530,233.293,244.4713,186.0406,229.903,259.8779,184.5820,185.3113,0.1540,,1.0137,, ,, , ,25.2997,,25.2977,,1.2233,73.6518,,,,1.9619E+03,,8.3236E+00,,12.1673,12.1675,0.0197,266.459,87.917,86.638,,,,,,,,,,,,
CalCOFI,2101RL,073,,2101_073d,02-Feb-2021 17:45:51,02-Feb-2021 09:45:51,35.08632,-120.77774,076.7 049.0,076.7,049.0,9.000,9.066,,12.1813,,12.1820,,12.1817,33.4067,,33.4125,33.4050,,33.4070,33.4098,5.3430,,5.5919,5.6354,5.2569,,5.5814,5.6343,5.6349,232.728,243.8799,186.0625,228.976,259.2496,184.6967,185.3796,0.1513,,0.9916,, ,, , ,25.3177,,25.3163,,1.1890,74.2877,,,,1.9633E+03,,5.7480E+00,,12.1802,12.1808,0.0224,264.770,87.744,86.329,,,,,,,,,,,,
CalCOFI,2101RL,073,,2101_073d,02-Feb-2021 17:45:52,02-Feb-2021 09:45:52,35.08632,-120.77772,076.7 049.0,076.7,049.0,10.000,10.073,,12.1610,,12.1672,,12.1641,33.4100,,33.4158,33.4098,,33.4118,33.4138,5.3122,,5.5596,5.6028,5.2324,,5.5553,5.6083,5.6056,231.382,242.4709,186.1148,227.910,257.7528,184.8285,185.4717,0.1399,,0.8982,, ,, , ,25.3241,,25.3228,,1.1629,74.7722,,,,1.9603E+03,,4.0928E+00,,12.1597,12.1659,0.0250,264.188,87.202,85.904,10,,33.3943,5.634,245.80,,,,,,,
CalCOFI,2101RL,073,,2101_073d,02-Feb-2021 17:45:54,02-Feb-2021 09:45:54,35.08632,-120.77772,076.7 049.0,076.7,049.0,11.000,11.080,,12.1226,,12.1244,,12.1235,33.4090,,33.4148,33.4073,,33.4093,33.4121,5.2211,,5.4643,5.5063,5.1774,,5.4969,5.5499,5.5281,227.412,238.3151,186.2688,225.513,253.3381,185.1250,185.6969,0.1298,,0.8154,, ,, , ,25.3306,,25.3290,,1.1624,74.7818,,,,1.9582E+03,,3.1920E+00,,12.1212,12.1230,0.0277,263.591,85.636,84.923,,,,,,,,,,,,
CalCOFI,2101RL,073,,2101_073d,02-Feb-2021 17:45:55,02-Feb-2021 09:45:55,35.08632,-120.77771,076.7 049.0,076.7,049.0,12.000,12.088,,12.0958,,12.0890,,12.0924,33.4266,,33.4324,33.4290,,33.4310,33.4317,5.1515,,5.3915,5.4326,5.1016,,5.4164,5.4693,5.4510,224.376,235.1370,186.3866,222.202,249.9620,185.5346,185.9606,0.1205,,0.7392,, ,, , ,25.3494,,25.3526,,1.1488,75.0362,,,,1.9623E+03,,2.5277E+00,,12.0943,12.0875,0.0303,261.832,84.456,83.628,,,,,,,,,,,,
CalCOFI,2101RL,073,,2101_073d,02-Feb-2021 17:45:56,02-Feb-2021 09:45:56,35.08632,-120.77770,076.7 049.0,076.7,049.0,13.000,13.095,,12.1091,,12.1086,,12.1089,33.4857,,33.4915,33.4843,,33.4863,33.4889,5.1329,,5.3720,5.4129,5.0612,,5.3735,5.4264,5.4197,223.561,234.2839,186.4183,220.437,249.0557,185.7529,186.0856,0.1025,,0.5917,, ,, , ,25.3928,,25.3918,,1.0572,76.7768,,,,1.9664E+03,,1.8315E+00,,12.1074,12.1069,0.0330,257.734,84.208,83.029,,,,,,,,,,,,
CalCOFI,2101RL,073,,2101_073d,02-Feb-2021 17:45:58,02-Feb-2021 09:45:58,35.08632,-120.77770,076.7 049.0,076.7,049.0,14.000,14.102,,12.0800,,12.0800,,12.0800,33.5018,,33.5076,33.5003,,33.5023,33.5050,5.1335,,5.3726,5.4136,5.0550,,5.3669,5.4198,5.4167,223.581,234.3048,186.4175,220.162,249.0780,185.7869,186.1022,0.0894,,0.4844,, ,, , ,25.4109,,25.4097,,1.0169,77.5524,,,,1.9641E+03,,1.2157E+00,,12.0782,12.0782,0.0355,256.038,84.174,82.886,,,,,,,,,,,,
CalCOFI,2101RL,073,,2101_073d,02-Feb-2021 17:46:01,02-Feb-2021 09:46:01,35.08632,-120.77769,076.7 049.0,076.7,049.0,15.000,15.110,,12.0697,,12.0702,,12.0700,33.5048,,33.5106,33.5031,,33.5051,33.5079,5.1251,,5.3638,5.4047,5.0398,,5.3508,5.4037,5.4042,223.216,233.9227,186.4316,219.499,248.6721,185.8689,186.1503,0.0839,,0.4393,, ,, , ,25.4151,,25.4137,,1.0102,77.6814,,,,1.9595E+03,,7.7946E-01,,12.0678,12.0683,0.0381,255.657,84.021,82.621,,,,,,,,,,,,
CalCOFI,2101RL,073,,2101_073d,02-Feb-2021 17:46:06,02-Feb-2021 09:46:06,35.08633,-120.77767,076.7 049.0,076.7,049.0,16.000,16.117,,12.0621,,12.0625,,12.0623,33.5066,,33.5124,33.5049,,33.5069,33.5097,5.1215,,5.3601,5.4009,5.0431,,5.3543,5.4072,5.4041,223.056,233.7552,186.4379,219.643,248.4942,185.8511,186.1445,0.0838,,0.4385,, ,, , ,25.4180,,25.4166,,1.0116,77.6540,,,,1.9703E+03,,4.8660E-01,,12.0600,12.0604,0.0407,255.412,83.948,82.663,,,,,,,,,,,,
CalCOFI,2101RL,073,,2101_073d,02-Feb-2021 17:46:10,02-Feb-2021 09:46:10,35.08634,-120.77768,076.7 049.0,076.7,049.0,17.000,17.124,,12.0545,,12.0546,,12.0546,33.5080,,33.5138,33.5065,,33.5085,33.5112,5.0956,,5.3330,5.3734,5.0101,,5.3192,5.3721,5.3728,221.927,232.5734,186.4817,218.206,247.2387,186.0288,186.2553,0.0828,,0.4303,, ,, , ,25.4205,,25.4193,,1.0120,77.6468,,,,1.9588E+03,,2.1104E-01,,12.0523,12.0524,0.0433,255.194,83.511,82.110,,,,,,,,,,,,
CalCOFI,2101RL,073,,2101_073d,02-Feb-2021 17:46:13,02-Feb-2021 09:46:13,35.08634,-120.77768,076.7 049.0,076.7,049.0,18.000,18.132,,12.0376,,12.0378,,12.0377,33.5139,,33.5197,33.5124,,33.5144,33.5171,5.0623,,5.2981,5.3382,4.9856,,5.2932,5.3461,5.3422,220.476,231.0545,186.5380,217.134,245.6252,186.1614,186.3497,0.0825,,0.4278,, ,, , ,25.4283,,25.4272,,1.0110,77.6669,,,,1.9624E+03,,3.0642E-02,,12.0353,12.0354,0.0458,254.481,82.939,81.681,,,,,,,,,,,,
CalCOFI,2101RL,073,,2101_073d,02-Feb-2021 17:46:15,02-Feb-2021 09:46:15,35.08633,-120.77768,076.7 049.0,076.7,049.0,19.000,19.139,,12.0217,,12.0214,,12.0216,33.5198,,33.5256,33.5185,,33.5205,33.5231,5.0258,,5.2599,5.2995,4.9480,,5.2533,5.3062,5.3029,218.886,229.3901,186.5997,215.499,243.8571,186.3636,186.4817,0.0839,,0.4393,, ,, , ,25.4359,,25.4350,,1.0090,77.7041,,,,1.9655E+03,,-5.107E-04,,12.0193,12.0189,0.0484,253.784,82.317,81.042,,,,,,,,,,,,
CalCOFI,2101RL,073,,2101_073d,02-Feb-2021 17:46:17,02-Feb-2021 09:46:17,35.08632,-120.77768,076.7 049.0,076.7,049.0,20.000,20.147,,11.9850,,11.9850,,11.9850,33.5290,,33.5348,33.5275,,33.5295,33.5322,5.0182,,5.2519,5.2915,4.9332,,5.2376,5.2905,5.2910,218.551,229.0394,186.6127,214.850,243.4845,186.4439,186.5283,0.0820,,0.4237,, ,, , ,25.4500,,25.4488,,1.0049,77.7852,,,,1.9699E+03,,1.0000E-12,,11.9825,11.9825,0.0509,252.468,82.134,80.742,20,,33.5086,5.306,231.47,,,,,,,
CalCOFI,2101RL,073,,2101_073d,02-Feb-2021 17:46:20,02-Feb-2021 09:46:20,35.08632,-120.77772,076.7 049.0,076.7,049.0,21.000,21.154,,11.9717,,11.9719,,11.9718,33.5320,,33.5378,33.5304,,33.5324,33.5351,4.9993,,5.2322,5.2714,4.9211,,5.2247,5.2776,5.2745,217.728,228.1779,186.6446,214.323,242.5694,186.5091,186.5769,0.0752,,0.3680,, ,, , ,25.4548,,25.4536,,1.0055,77.7738,,,,1.9733E+03,,1.0000E-12,,11.9690,11.9692,0.0535,252.031,81.804,80.524,,,,,,,,,,,,
CalCOFI,2101RL,073,,2101_073d,02-Feb-2021 17:46:22,02-Feb-2021 09:46:22,35.08634,-120.77770,076.7 049.0,076.7,049.0,22.000,22.161,,11.9634,,11.9635,,11.9635,33.5333,,33.5391,33.5317,,33.5337,33.5364,4.9876,,5.2199,5.2590,4.9057,,5.2083,5.2612,5.2601,217.218,227.6440,186.6644,213.652,242.0022,186.5921,186.6283,0.0777,,0.3885,, ,, , ,25.4575,,25.4562,,1.0081,77.7216,,,,1.9597E+03,,1.0000E-12,,11.9606,11.9607,0.0560,251.807,81.599,80.258,,,,,,,,,,,,
CalCOFI,2101RL,073,,2101_073d,02-Feb-2021 17:46:24,02-Feb-2021 09:46:24,35.08634,-120.77770,076.7 049.0,076.7,049.0,23.000,23.169,,11.9522,,11.9524,,11.9523,33.5363,,33.5421,33.5347,,33.5367,33.5394,4.9727,,5.2043,5.2433,4.8917,,5.1935,5.2464,5.2449,216.567,226.9625,186.6897,213.039,241.2783,186.6679,186.6788,0.0821,,0.4245,, ,, , ,25.4619,,25.4607,,1.0076,77.7321,,,,1.9506E+03,,1.0000E-12,,11.9493,11.9494,0.0586,251.407,81.337,80.011,,,,,,,,,,,,
CalCOFI,2101RL,073,,2101_073d,02-Feb-2021 17:46:25,02-Feb-2021 09:46:25,35.08632,-120.77768,076.7 049.0,076.7,049.0,24.000,24.176,,11.9445,,11.9445,,11.9445,33.5382,,33.5440,33.5366,,33.5386,33.5413,4.9521,,5.1828,5.2214,4.8688,,5.1692,5.2220,5.2217,215.671,226.0246,186.7244,212.042,240.2819,186.7912,186.7578,0.0895,,0.4852,, ,, , ,25.4648,,25.4636,,1.0079,77.7261,,,,1.9530E+03,,1.0000E-12,,11.9414,11.9414,0.0611,251.156,80.988,79.625,,,,,,,,,,,,
CalCOFI,2101RL,073,,2101_073d,02-Feb-2021 17:46:27,02-Feb-2021 09:46:27,35.08632,-120.77768,076.7 049.0,076.7,049.0,25.000,25.184,,11.9309,,11.9312,,11.9311,33.5402,,33.5460,33.5386,,33.5406,33.5433,4.9273,,5.1568,5.1952,4.8426,,5.1413,5.1942,5.1947,214.589,224.8920,186.7664,210.902,239.0787,186.9323,186.8494,0.0833,,0.4344,, ,, , ,25.4690,,25.4677,,1.0131,77.6250,,,,1.9667E+03,,1.0000E-12,,11.9277,11.9280,0.0636,250.783,80.561,79.176,,,,,,,,,,,,
CalCOFI,2101RL,073,,2101_073d,02-Feb-2021 17:46:29,02-Feb-2021 09:46:29,35.08632,-120.77768,076.7 049.0,076.7,049.0,26.000,26.191,,11.9058,,11.9080,,11.9069,33.5450,,33.5508,33.5432,,33.5452,33.5480,4.8797,,5.1070,5.1448,4.7977,,5.0936,5.1465,5.1457,212.512,222.7178,186.8470,208.943,236.7691,187.1746,187.0108,0.0747,,0.3639,, ,, , ,25.4775,,25.4756,,1.0169,77.5518,,,,1.9857E+03,,1.0000E-12,,11.9025,11.9047,0.0661,250.002,79.742,78.405,,,,,,,,,,,,
CalCOFI,2101RL,073,,2101_073d,02-Feb-2021 17:46:32,02-Feb-2021 09:46:32,35.08632,-120.77768,076.7 049.0,076.7,049.0,27.000,27.198,,11.8615,,11.8620,,11.8618,33.5547,,33.5605,33.5533,,33.5553,33.5579,4.8298,,5.0548,5.0919,4.7487,,5.0416,5.0945,5.0932,210.337,220.4410,186.9314,206.805,234.3504,187.4390,187.1852,0.0735,,0.3541,, ,, , ,25.4933,,25.4921,,1.0140,77.6080,,,,1.9746E+03,,1.0000E-12,,11.8581,11.8586,0.0686,248.518,78.858,77.534,,,,,,,,,,,,
CalCOFI,2101RL,073,,2101_073d,02-Feb-2021 17:46:34,02-Feb-2021 09:46:34,35.08632,-120.77768,076.7 049.0,076.7,049.0,28.000,28.206,,11.8259,,11.8269,,11.8264,33.5630,,33.5688,33.5612,,33.5632,33.5660,4.7349,,4.9554,4.9914,4.6773,,4.9658,5.0186,5.0050,206.202,216.1125,187.0919,203.691,229.7523,187.8242,187.4581,0.0703,,0.3278,, ,, , ,25.5064,,25.5049,,1.0102,77.6825,,,,1.9509E+03,,1.0000E-12,,11.8224,11.8233,0.0712,247.300,77.255,76.315,,,,,,,,,,,,
CalCOFI,2101RL,073,,2101_073d,02-Feb-2021 17:46:35,02-Feb-2021 09:46:35,35.08632,-120.77766,076.7 049.0,076.7,049.0,29.000,29.213,,11.7903,,11.7908,,11.7906,33.5758,,33.5816,33.5740,,33.5760,33.5788,4.6866,,4.9049,4.9403,4.6355,,4.9214,4.9742,4.9573,204.094,213.9058,187.1737,201.870,227.4081,188.0494,187.6116,0.0702,,0.3270,, ,, , ,25.5230,,25.5215,,1.0030,77.8224,,,,1.9517E+03,,1.0000E-12,,11.7867,11.7871,0.0736,245.743,76.415,75.582,,,,,,,,,,,,
CalCOFI,2101RL,073,,2101_073d,02-Feb-2021 17:46:37,02-Feb-2021 09:46:37,35.08632,-120.77766,076.7 049.0,076.7,049.0,30.000,30.221,,11.7847,,11.7848,,11.7848,33.5826,,33.5884,33.5811,,33.5831,33.5858,4.6378,,4.8538,4.8886,4.5892,,4.8722,4.9250,4.9068,201.969,211.6813,187.2561,199.851,225.0451,188.2991,187.7776,0.0697,,0.3229,, ,, , ,25.5294,,25.5282,,0.9915,78.0466,,,,1.9631E+03,,1.0000E-12,,11.7809,11.7810,0.0761,245.163,75.614,74.821,,,,,,,,,,,,
CalCOFI,2101RL,073,,2101_073d,02-Feb-2021 17:46:39,02-Feb-2021 09:46:39,35.08632,-120.77766,076.7 049.0,076.7,049.0,31.000,31.228,,11.7816,,11.7817,,11.7817,33.5900,,33.5958,33.5884,,33.5904,33.5931,4.6394,,4.8555,4.8903,4.5603,,4.8415,4.8943,4.8923,202.037,211.7525,187.2535,198.591,225.1207,188.4550,187.8543,0.0674,,0.3041,, ,, , ,25.5357,,25.5345,,0.9766,78.3366,,,,1.9717E+03,,1.0000E-12,,11.7776,11.7777,0.0786,244.583,75.639,74.348,,,,,,,,,,,,
CalCOFI,2101RL,073,,2101_073d,02-Feb-2021 17:46:40,02-Feb-2021 09:46:40,35.08633,-120.77766,076.7 049.0,076.7,049.0,32.000,32.235,,11.7756,,11.7760,,11.7758,33.5917,,33.5975,33.5898,,33.5918,33.5947,4.6286,,4.8442,4.8788,4.5468,,4.8272,4.8800,4.8794,201.566,211.2595,187.2718,198.003,224.5970,188.5277,187.8998,0.0685,,0.3131,, ,, , ,25.5382,,25.5367,,0.9736,78.3962,,,,1.9798E+03,,1.0000E-12,,11.7716,11.7719,0.0810,244.377,75.454,74.120,,,,,,,,,,,,
CalCOFI,2101RL,073,,2101_073d,02-Feb-2021 17:46:43,02-Feb-2021 09:46:43,35.08636,-120.77766,076.7 049.0,076.7,049.0,33.000,33.243,,11.7736,,11.7743,,11.7740,33.5929,,33.5987,33.5910,,33.5930,33.5959,4.6005,,4.8148,4.8491,4.5219,,4.8007,4.8535,4.8513,200.343,209.9793,187.3192,196.917,223.2370,188.6620,187.9906,0.0638,,0.2746,, ,, , ,25.5396,,25.5379,,0.9723,78.4212,,,,1.9734E+03,,1.0000E-12,,11.7694,11.7702,0.0835,244.271,74.994,73.711,,,,,,,,,,,,
CalCOFI,2101RL,073,,2101_073d,02-Feb-2021 17:46:46,02-Feb-2021 09:46:46,35.08636,-120.77768,076.7 049.0,076.7,049.0,34.000,34.250,,11.7593,,11.7600,,11.7597,33.5962,,33.6020,33.5947,,33.5967,33.5994,4.5876,,4.8013,4.8354,4.5062,,4.7840,4.8369,4.8362,199.778,209.3878,187.3411,196.235,222.6087,188.7464,188.0438,0.0654,,0.2877,, ,, , ,25.5448,,25.5435,,0.9681,78.5038,,,,1.9558E+03,,1.0000E-12,,11.7550,11.7557,0.0860,243.799,74.761,73.436,,,,,,,,,,,,
CalCOFI,2101RL,073,,2101_073d,02-Feb-2021 17:46:48,02-Feb-2021 09:46:48,35.08636,-120.77767,076.7 049.0,076.7,049.0,35.000,35.258,,11.7488,,11.7458,,11.7473,33.5949,,33.6007,33.5928,,33.5948,33.5978,4.5523,,4.7643,4.7980,4.4743,,4.7502,4.8030,4.8005,198.242,207.7799,187.4007,194.846,220.9006,188.9182,188.1595,0.0646,,0.2811,, ,, , ,25.5457,,25.5447,,0.9783,78.3033,,,,1.9513E+03,,1.0000E-12,,11.7444,11.7413,0.0884,243.736,74.170,72.894,,,,,,,,,,,,
CalCOFI,2101RL,073,,2101_073d,02-Feb-2021 17:46:49,02-Feb-2021 09:46:49,35.08636,-120.77766,076.7 049.0,076.7,049.0,36.000,36.265,,11.7368,,11.7369,,11.7369,33.5972,,33.6030,33.5953,,33.5973,33.6002,4.5313,,4.7424,4.7758,4.4531,,4.7276,4.7805,4.7782,197.326,206.8211,187.4363,193.919,219.8820,189.0329,188.2346,0.0659,,0.2918,, ,, , ,25.5498,,25.5482,,0.9798,78.2737,,,,1.9570E+03,,1.0000E-12,,11.7322,11.7323,0.0909,243.372,73.810,72.535,,,,,,,,,,,,
CalCOFI,2101RL,073,,2101_073d,02-Feb-2021 17:46:50,02-Feb-2021 09:46:50,35.08636,-120.77766,076.7 049.0,076.7,049.0,37.000,37.273,,11.7336,,11.7330,,11.7333,33.6000,,33.6058,33.5987,,33.6007,33.6033,4.5290,,4.7400,4.7734,4.4482,,4.7224,4.7753,4.7744,197.227,206.7174,187.4401,193.707,219.7719,189.0591,188.2496,0.0641,,0.2770,, ,, , ,25.5526,,25.5517,,0.9721,78.4258,,,,1.9645E+03,,1.0000E-12,,11.7289,11.7283,0.0933,243.130,73.769,72.451,,,,,,,,,,,,
CalCOFI,2101RL,073,,2101_073d,02-Feb-2021 17:46:51,02-Feb-2021 09:46:51,35.08636,-120.77765,076.7 049.0,076.7,049.0,38.000,38.280,,11.7214,,11.7215,,11.7215,33.6018,,33.6076,33.6004,,33.6024,33.6050,4.5434,,4.7550,4.7886,4.4551,,4.7298,4.7826,4.7856,197.853,207.3727,187.4158,194.005,220.4680,189.0222,188.2190,0.0651,,0.2852,, ,, , ,25.5562,,25.5552,,0.9734,78.3999,,,,1.9744E+03,,1.0000E-12,,11.7166,11.7167,0.0958,242.806,73.986,72.546,,,,,,,,,,,,
CalCOFI,2101RL,073,,2101_073d,02-Feb-2021 17:46:56,02-Feb-2021 09:46:56,35.08636,-120.77762,076.7 049.0,076.7,049.0,39.000,39.288,,11.7319,,11.7347,,11.7333,33.5998,,33.6056,33.5978,,33.5998,33.6027,4.5450,,4.7567,4.7903,4.4663,,4.7417,4.7945,4.7924,197.922,207.4449,187.4132,194.494,220.5448,188.9617,188.1875,0.0664,,0.2959,, ,, , ,25.5528,,25.5507,,0.9739,78.3899,,,,1.9805E+03,,1.0000E-12,,11.7269,11.7298,0.0985,243.158,74.026,72.748,,,,,,,,,,,,
CalCOFI,2101RL,073,,2101_073d,02-Feb-2021 17:46:59,02-Feb-2021 09:46:59,35.08636,-120.77762,076.7 049.0,076.7,049.0,40.000,40.295,,11.7179,,11.7237,,11.7208,33.6033,,33.6091,33.6002,,33.6022,33.6057,4.5074,,4.7173,4.7505,4.4181,,4.6905,4.7433,4.7469,196.284,205.7303,187.4767,192.395,218.7233,189.2214,188.3491,0.0616,,0.2566,, ,, , ,25.5581,,25.5546,,0.9710,78.4462,,,,1.9476E+03,,1.0000E-12,,11.7129,11.7186,0.1011,242.676,73.394,71.947,,,,,,,,,,,,
CalCOFI,2101RL,073,,2101_073d,02-Feb-2021 17:47:00,02-Feb-2021 09:47:00,35.08636,-120.77762,076.7 049.0,076.7,049.0,41.000,41.303,,11.7149,,11.7153,,11.7151,33.6046,,33.6104,33.6031,,33.6051,33.6078,4.5063,,4.7162,4.7493,4.4183,,4.6907,4.7435,4.7464,196.234,205.6780,187.4787,192.402,218.6677,189.2205,188.3496,0.0639,,0.2754,, ,, , ,25.5597,,25.5585,,0.9702,78.4620,,,,1.9468E+03,,1.0000E-12,,11.7097,11.7101,0.1036,242.551,73.371,71.939,,,,,,,,,,,,
CalCOFI,2101RL,073,,2101_073d,02-Feb-2021 17:47:02,02-Feb-2021 09:47:02,35.08636,-120.77762,076.7 049.0,076.7,049.0,42.000,42.310,,11.7134,,11.7137,,11.7136,33.6051,,33.6109,33.6035,,33.6055,33.6082,4.5043,,4.7141,4.7472,4.4133,,4.6854,4.7382,4.7427,196.148,205.5879,187.4820,192.188,218.5721,189.2470,188.3645,0.0667,,0.2983,, ,, , ,25.5604,,25.5591,,0.9725,78.4177,,,,1.9603E+03,,1.0000E-12,,11.7081,11.7084,0.1060,242.512,73.337,71.856,,,,,,,,,,,,
CalCOFI,2101RL,073,,2101_073d,02-Feb-2021 17:47:03,02-Feb-2021 09:47:03,35.08636,-120.77762,076.7 049.0,076.7,049.0,43.000,43.318,,11.7126,,11.7127,,11.7127,33.6057,,33.6115,33.6043,,33.6063,33.6089,4.5001,,4.7097,4.7428,4.4080,,4.6797,4.7325,4.7377,195.967,205.3985,187.4890,191.955,218.3708,189.2758,188.3824,0.0647,,0.2820,, ,, , ,25.5610,,25.5599,,0.9720,78.4275,,,,1.9774E+03,,1.0000E-12,,11.7072,11.7072,0.1084,242.474,73.269,71.768,,,,,,,,,,,,
CalCOFI,2101RL,073,,2101_073d,02-Feb-2021 17:47:05,02-Feb-2021 09:47:05,35.08636,-120.77762,076.7 049.0,076.7,049.0,44.000,44.325,,11.7125,,11.7125,,11.7125,33.6064,,33.6122,33.6049,,33.6069,33.6096,4.5088,,4.7188,4.7520,4.4167,,4.6890,4.7418,4.7469,196.342,205.7910,187.4745,192.332,218.7878,189.2292,188.3519,0.0642,,0.2779,, ,, , ,25.5617,,25.5604,,0.9696,78.4751,,,,1.9892E+03,,1.0000E-12,,11.7069,11.7069,0.1109,242.440,73.409,71.909,,,,,,,,,,,,
CalCOFI,2101RL,073,,2101_073d,02-Feb-2021 17:47:11,02-Feb-2021 09:47:11,35.08638,-120.77757,076.7 049.0,076.7,049.0,45.000,45.333,,11.7148,,11.7153,,11.7151,33.6054,,33.6112,33.6036,,33.6056,33.6084,4.4786,,4.6872,4.7200,4.4063,,4.6779,4.7307,4.7254,195.029,204.4166,187.5254,191.881,217.3277,189.2849,188.4052,0.0643,,0.2787,, ,, , ,25.5604,,25.5590,,0.9703,78.4600,,,,1.9590E+03,,1.0000E-12,,11.7091,11.7096,0.1135,242.582,72.921,71.744,,,,,,,,,,,,
CalCOFI,2101RL,073,,2101_073d,02-Feb-2021 17:47:13,02-Feb-2021 09:47:13,35.08638,-120.77756,076.7 049.0,076.7,049.0,46.000,46.340,,11.6986,,11.6996,,11.6991,33.6075,,33.6133,33.6061,,33.6081,33.6107,4.4568,,4.6644,4.6969,4.3853,,4.6556,4.7084,4.7027,194.078,203.4211,187.5623,190.965,216.2702,189.3982,188.4803,0.0635,,0.2721,, ,, , ,25.5651,,25.5638,,0.9745,78.3772,,,,1.9610E+03,,1.0000E-12,,11.6928,11.6938,0.1159,242.160,72.542,71.379,,,,,,,,,,,,
CalCOFI,2101RL,073,,2101_073d,02-Feb-2021 17:47:15,02-Feb-2021 09:47:15,35.08636,-120.77756,076.7 049.0,076.7,049.0,47.000,47.348,,11.6917,,11.6919,,11.6918,33.6102,,33.6160,33.6089,,33.6109,33.6135,4.4472,,4.6543,4.6867,4.3589,,4.6276,4.6804,4.6836,193.662,202.9856,187.5785,189.818,215.8076,189.5401,188.5593,0.0646,,0.2811,, ,, , ,25.5685,,25.5674,,0.9714,78.4399,,,,1.9666E+03,,1.0000E-12,,11.6857,11.6859,0.1183,241.861,72.378,70.940,,,,,,,,,,,,
CalCOFI,2101RL,073,,2101_073d,02-Feb-2021 17:47:16,02-Feb-2021 09:47:16,35.08636,-120.77756,076.7 049.0,076.7,049.0,48.000,48.355,,11.6896,,11.6898,,11.6897,33.6129,,33.6187,33.6113,,33.6133,33.6160,4.4316,,4.6380,4.6702,4.3455,,4.6134,4.6662,4.6682,192.982,202.2738,187.6049,189.233,215.0514,189.6125,188.6087,0.0628,,0.2664,, ,, , ,25.5710,,25.5698,,0.9647,78.5698,,,,1.9759E+03,,1.0000E-12,,11.6835,11.6837,0.1208,241.650,72.122,70.720,,,,,,,,,,,,
CalCOFI,2101RL,073,,2101_073d,02-Feb-2021 17:47:20,02-Feb-2021 09:47:20,35.08636,-120.77755,076.7 049.0,076.7,049.0,49.000,49.363,,11.6883,,11.6882,,11.6883,33.6129,,33.6187,33.6116,,33.6136,33.6162,4.4408,,4.6476,4.6799,4.3525,,4.6208,4.6736,4.6768,193.383,202.6935,187.5893,189.534,215.4973,189.5752,188.5823,0.0635,,0.2721,, ,, , ,25.5713,,25.5703,,0.9649,78.5669,,,,1.9730E+03,,1.0000E-12,,11.6821,11.6820,0.1232,241.646,72.270,70.831,,,,,,,,,,,,
CalCOFI,2101RL,073,,2101_073d,02-Feb-2021 17:47:24,02-Feb-2021 09:47:24,35.08636,-120.77752,076.7 049.0,076.7,049.0,50.000,50.370,,11.6847,,11.6829,,11.6838,33.6139,,33.6197,33.6131,,33.6151,33.6174,4.4227,,4.6287,4.6608,4.3292,,4.5960,4.6488,4.6548,192.594,201.8676,187.6199,188.520,214.6200,189.7007,188.6603,0.0600,,0.2434,, ,, , ,25.5728,,25.5725,,0.9636,78.5912,,,,1.9615E+03,,1.0000E-12,,11.6783,11.6765,0.1256,241.532,71.970,70.444,,,,,,,,,,,,
CalCOFI,2101RL,073,,2101_073d,02-Feb-2021 17:47:26,02-Feb-2021 09:47:26,35.08636,-120.77750,076.7 049.0,076.7,049.0,51.000,51.378,,11.6810,,11.6807,,11.6809,33.6156,,33.6214,33.6142,,33.6162,33.6188,4.4158,,4.6215,4.6535,4.3292,,4.5960,4.6488,4.6512,192.293,201.5525,187.6316,188.523,214.2852,189.7003,188.6660,0.0631,,0.2688,, ,, , ,25.5748,,25.5737,,0.9660,78.5446,,,,1.9767E+03,,1.0000E-12,,11.6746,11.6742,0.1281,241.367,71.853,70.443,51,,33.6051,4.656,203.12,,,,,,,
CalCOFI,2101RL,073,,2101_073d,02-Feb-2021 17:47:29,02-Feb-2021 09:47:29,35.08638,-120.77750,076.7 049.0,076.7,049.0,52.000,52.385,,11.6615,,11.6635,,11.6625,33.6164,,33.6222,33.6148,,33.6168,33.6195,4.3562,,4.5591,4.5904,4.2887,,4.5530,4.6058,4.5981,189.696,198.8340,187.7324,186.756,211.3973,189.9188,188.8256,0.0621,,0.2607,, ,, , ,25.5791,,25.5774,,0.9712,78.4426,,,,1.9697E+03,,1.0000E-12,,11.6550,11.6570,0.1305,240.981,70.854,69.758,,,,,,,,,,,,
CalCOFI,2101RL,073,,2101_073d,02-Feb-2021 17:47:31,02-Feb-2021 09:47:31,35.08638,-120.77748,076.7 049.0,076.7,049.0,53.000,53.393,,11.6045,,11.6011,,11.6028,33.6194,,33.6252,33.6193,,33.6213,33.6233,4.0518,,4.2405,4.2680,4.0849,,4.3366,4.3893,4.3287,176.436,184.9534,188.2469,177.879,196.6520,191.0168,189.6319,0.0610,,0.2516,, ,, , ,25.5919,,25.5925,,1.0089,77.7101,,,,1.9604E+03,,1.0000E-12,,11.5978,11.5944,0.1329,239.780,65.824,66.358,,,,,,,,,,,,